When you browse on this site, cookies collect data to enhance your experience and personalize the content and advertising you see.
Visit our Privacy Policy to learn more. By continuing to use the site, you agree to this use of cookies and data.
  • In Romania
  • List of Countries
  • For 7 days
  • Water Temperature
  • Satellite Maps
  • Weather Map
  • Weather Widgets
  • user-avatar
    Login

    Hourly Weather Gori

    Today, 26 March, Tuesday

    Time Temperature Precipitation Wind Pressure Humidity
    00:00 +3°C° 0.1 mm 3 mps 698 mmHg 79%
    01:00 +3°C° 0.1 mm 3 mps 698 mmHg 79%
    02:00 +3°C° 0.1 mm 3 mps 698 mmHg 79%
    03:00 +2°C° 0 mm 3 mps 698 mmHg 79%
    04:00 +2°C° 0.1 mm 3 mps 698 mmHg 79%
    05:00 +2°C° 0.1 mm 3 mps 698 mmHg 79%
    06:00 +2°C° 0.1 mm 3 mps 698 mmHg 80%
    07:00 +3°C° 0.1 mm 3 mps 698 mmHg 76%
    08:00 +3°C° 0.1 mm 4 mps 697 mmHg 72%
    09:00 +4°C° 0 mm 4 mps 697 mmHg 68%
    10:00 +5°C° 0.1 mm 4 mps 697 mmHg 66%
    11:00 +6°C° 0.1 mm 4 mps 697 mmHg 63%
    12:00 +7°C° 0.1 mm 5 mps 696 mmHg 61%
    13:00 +7°C° 0 mm 4 mps 696 mmHg 61%
    14:00 +8°C° 0 mm 4 mps 696 mmHg 61%
    15:00 +8°C° 0 mm 4 mps 695 mmHg 61%
    16:00 +7°C° 0 mm 4 mps 696 mmHg 64%
    17:00 +6°C° 0 mm 4 mps 696 mmHg 68%
    18:00 +5°C° 0 mm 3 mps 696 mmHg 72%
    19:00 +5°C° 0 mm 3 mps 696 mmHg 75%
    20:00 +5°C° 0 mm 2 mps 697 mmHg 78%
    21:00 +4°C° 0 mm 2 mps 697 mmHg 81%
    22:00 +5°C° 0 mm 1 mps 697 mmHg 81%
    23:00 +5°C° 0 mm 1 mps 697 mmHg 80%

    Tomorrow, 27 March, Wednesday

    Time Temperature Precipitation Wind Pressure Humidity
    00:00 +4°C° 0 mm 1 mps 696 mmHg 79%
    01:00 +4°C° 0 mm 1 mps 696 mmHg 79%
    02:00 +4°C° 0 mm 1 mps 696 mmHg 79%
    03:00 +4°C° 0 mm 1 mps 696 mmHg 79%
    04:00 +4°C° 0 mm 1 mps 697 mmHg 78%
    05:00 +4°C° 0 mm 1 mps 697 mmHg 78%
    06:00 +4°C° 0 mm 1 mps 697 mmHg 78%
    07:00 +6°C° 0 mm 1 mps 697 mmHg 71%
    08:00 +8°C° 0 mm 1 mps 697 mmHg 65%
    09:00 +9°C° 0 mm 0 mps 697 mmHg 58%
    10:00 +10°C° 0 mm 2 mps 697 mmHg 54%
    11:00 +12°C° 0 mm 3 mps 697 mmHg 50%
    12:00 +13°C° 0 mm 4 mps 696 mmHg 45%
    13:00 +13°C° 0 mm 5 mps 696 mmHg 44%
    14:00 +14°C° 0 mm 5 mps 696 mmHg 43%
    15:00 +14°C° 0 mm 6 mps 696 mmHg 43%
    16:00 +13°C° 0 mm 6 mps 696 mmHg 48%
    17:00 +10°C° 0 mm 5 mps 697 mmHg 54%
    18:00 +9°C° 0 mm 5 mps 697 mmHg 60%
    19:00 +8°C° 0 mm 4 mps 697 mmHg 67%
    20:00 +7°C° 0 mm 4 mps 698 mmHg 74%
    21:00 +5°C° 0 mm 3 mps 699 mmHg 81%
    22:00 +5°C° 0 mm 3 mps 699 mmHg 82%
    23:00 +5°C° 0 mm 4 mps 699 mmHg 83%

    Day after tomorrow, 28 March, Thursday

    Time Temperature Precipitation Wind Pressure Humidity
    00:00 +5°C° 0 mm 4 mps 700 mmHg 84%
    01:00 +4°C° 0 mm 3 mps 700 mmHg 85%
    02:00 +4°C° 0 mm 3 mps 700 mmHg 85%
    03:00 +3°C° 0 mm 3 mps 700 mmHg 85%
    04:00 +3°C° 0 mm 3 mps 700 mmHg 85%
    05:00 +3°C° 0 mm 3 mps 700 mmHg 85%
    06:00 +3°C° 0 mm 3 mps 700 mmHg 84%
    07:00 +4°C° 0 mm 4 mps 700 mmHg 79%
    08:00 +4°C° 0 mm 4 mps 700 mmHg 73%
    09:00 +5°C° 0 mm 4 mps 700 mmHg 68%
    10:00 +6°C° 0 mm 4 mps 700 mmHg 64%
    11:00 +7°C° 0 mm 5 mps 700 mmHg 60%
    12:00 +8°C° 0 mm 5 mps 700 mmHg 56%
    13:00 +8°C° 0 mm 5 mps 700 mmHg 55%
    14:00 +8°C° 0 mm 5 mps 699 mmHg 55%
    15:00 +8°C° 0 mm 5 mps 699 mmHg 55%
    16:00 +7°C° 0 mm 5 mps 699 mmHg 60%
    17:00 +6°C° 0 mm 4 mps 699 mmHg 65%
    18:00 +5°C° 0 mm 4 mps 700 mmHg 71%
    19:00 +5°C° 0 mm 3 mps 700 mmHg 73%
    20:00 +4°C° 0 mm 3 mps 700 mmHg 76%
    21:00 +4°C° 0 mm 3 mps 701 mmHg 79%
    22:00 +4°C° 0 mm 2 mps 701 mmHg 80%
    23:00 +4°C° 0 mm 2 mps 701 mmHg 82%

    29 March, Friday

    Time Temperature Precipitation Wind Pressure Humidity
    00:00 +4°C° 0 mm 2 mps 701 mmHg 83%
    01:00 +3°C° 0.2 mm 2 mps 701 mmHg 84%
    02:00 +4°C° 0.2 mm 1 mps 701 mmHg 86%
    03:00 +4°C° 0.2 mm 1 mps 700 mmHg 87%
    04:00 +4°C° 0.5 mm 1 mps 700 mmHg 86%
    05:00 +4°C° 0.5 mm 1 mps 700 mmHg 86%
    06:00 +4°C° 0.5 mm 1 mps 700 mmHg 85%
    07:00 +4°C° 0.5 mm 1 mps 701 mmHg 82%
    08:00 +5°C° 0.5 mm 1 mps 701 mmHg 79%
    09:00 +5°C° 0.5 mm 1 mps 701 mmHg 75%
    10:00 +6°C° 0.5 mm 1 mps 701 mmHg 74%
    11:00 +5°C° 0.5 mm 2 mps 700 mmHg 72%
    12:00 +6°C° 0.5 mm 2 mps 700 mmHg 71%
    13:00 +6°C° 0.4 mm 2 mps 700 mmHg 70%
    14:00 +6°C° 0.4 mm 2 mps 700 mmHg 70%
    15:00 +6°C° 0.4 mm 2 mps 700 mmHg 70%
    16:00 +6°C° 0.3 mm 2 mps 700 mmHg 73%
    17:00 +5°C° 0.3 mm 2 mps 700 mmHg 76%
    18:00 +4°C° 0.3 mm 2 mps 700 mmHg 79%
    19:00 +4°C° 0.2 mm 2 mps 701 mmHg 81%
    20:00 +5°C° 0.2 mm 1 mps 701 mmHg 83%
    21:00 +4°C° 0.2 mm 1 mps 702 mmHg 85%
    22:00 +4°C° 0.2 mm 1 mps 702 mmHg 85%
    23:00 +4°C° 0.2 mm 1 mps 702 mmHg 85%

    30 March, Saturday

    Time Temperature Precipitation Wind Pressure Humidity
    00:00 +3°C° 0.2 mm 0 mps 701 mmHg 85%
    01:00 +3°C° 0.3 mm 0 mps 701 mmHg 85%
    02:00 +4°C° 0.3 mm 1 mps 701 mmHg 85%
    03:00 +4°C° 0.3 mm 1 mps 701 mmHg 85%
    04:00 +4°C° 0.4 mm 1 mps 701 mmHg 85%
    05:00 +4°C° 0.4 mm 1 mps 701 mmHg 85%
    06:00 +4°C° 0.4 mm 1 mps 701 mmHg 86%
    07:00 +4°C° 0.3 mm 2 mps 701 mmHg 82%
    08:00 +5°C° 0.3 mm 2 mps 701 mmHg 78%
    09:00 +5°C° 0.3 mm 3 mps 701 mmHg 74%
    10:00 +5°C° 0.3 mm 3 mps 701 mmHg 74%
    11:00 +6°C° 0.3 mm 4 mps 700 mmHg 73%
    12:00 +6°C° 0.3 mm 4 mps 700 mmHg 72%
    13:00 +6°C° 0.3 mm 4 mps 700 mmHg 72%
    14:00 +7°C° 0.3 mm 5 mps 699 mmHg 72%
    15:00 +7°C° 0.3 mm 5 mps 699 mmHg 72%
    16:00 +6°C° 0.5 mm 4 mps 699 mmHg 74%
    17:00 +6°C° 0.5 mm 4 mps 699 mmHg 76%
    18:00 +5°C° 0.5 mm 4 mps 699 mmHg 78%
    19:00 +5°C° 0.5 mm 4 mps 700 mmHg 79%
    20:00 +5°C° 0.5 mm 4 mps 700 mmHg 80%
    21:00 +5°C° 0.5 mm 4 mps 700 mmHg 81%
    22:00 +4°C° 0.3 mm 4 mps 700 mmHg 81%
    23:00 +4°C° 0.3 mm 4 mps 700 mmHg 81%

    31 March, Sunday

    Time Temperature Precipitation Wind Pressure Humidity
    00:00 +4°C° 0.3 mm 4 mps 700 mmHg 81%
    01:00 +4°C° 0.2 mm 4 mps 699 mmHg 80%
    02:00 +4°C° 0.2 mm 4 mps 699 mmHg 80%
    03:00 +4°C° 0.2 mm 4 mps 699 mmHg 79%
    04:00 +4°C° 0.3 mm 4 mps 699 mmHg 79%
    05:00 +4°C° 0.3 mm 4 mps 699 mmHg 79%
    06:00 +4°C° 0.3 mm 4 mps 698 mmHg 80%
    07:00 +5°C° 0.2 mm 4 mps 698 mmHg 79%
    08:00 +5°C° 0.2 mm 5 mps 698 mmHg 77%
    09:00 +6°C° 0.2 mm 5 mps 698 mmHg 76%
    10:00 +6°C° 0.1 mm 5 mps 697 mmHg 74%
    11:00 +7°C° 0.1 mm 6 mps 697 mmHg 73%
    12:00 +8°C° 0.1 mm 6 mps 696 mmHg 71%
    13:00 +8°C° 0.1 mm 6 mps 696 mmHg 71%
    14:00 +8°C° 0.1 mm 5 mps 695 mmHg 71%
    15:00 +8°C° 0.1 mm 5 mps 695 mmHg 70%
    16:00 +7°C° 0.1 mm 5 mps 695 mmHg 73%
    17:00 +7°C° 0.1 mm 4 mps 695 mmHg 75%
    18:00 +6°C° 0.1 mm 4 mps 695 mmHg 78%
    19:00 +6°C° 0.3 mm 4 mps 695 mmHg 79%
    20:00 +6°C° 0.3 mm 4 mps 695 mmHg 81%
    21:00 +5°C° 0.3 mm 3 mps 695 mmHg 82%
    22:00 +5°C° 0.2 mm 4 mps 695 mmHg 82%
    23:00 +5°C° 0.2 mm 4 mps 695 mmHg 83%
    Show more